Weather History for Fayetteville, AR

Change the Weather History Date:

Saturday, February 8, 2014

  Actual Average Record
Temperature  
Mean Temperature 28 °F 38 °F  
Max Temperature 33 °F 49 °F 70 °F (1999)
Min Temperature 23 °F 27 °F -3 °F (1971)
Degree Days  
Heating Degree Days 37 27  
Month to date heating degree days 338 221  
Since 1 July heating degree days 3194 2815  
Moisture  
Dew Point 25 °F    
Average Humidity 88    
Maximum Humidity 100    
Minimum Humidity 75    
Precipitation  
Precipitation T in 0.09 in 0.73 in (1956)
Month to date precipitation 0.79 0.71  
Year to date precipitation 2.43 3.55  
Sea Level Pressure  
Sea Level Pressure 30.15 in    
Wind  
Wind Speed 5 mph (SSW)    
Max Wind Speed 10 mph    
Max Gust Speed 17 mph    
Visibility 7 miles    
Events Snow    
T = Trace of Precipitation, MM = Missing Value Source: NWS Daily Summary

Daily Weather History Graph

Daily Weather History Graph

Search for Another Location

Airport:

Trip Planner

Search our weather history database for the weather conditions in past years. The results will help you decide how hot, cold, wet, or windy it might be!

Date:

Astronomy

Feb. 08, 2014 Rise Set
Actual Time 7:11 AM CST 5:51 PM CST
Civil Twilight 6:44 AM CST 6:17 PM CST
Nautical Twilight 6:14 AM CST 6:47 PM CST
Astronomical Twilight 5:44 AM CST 7:17 PM CST
Moon 12:48 PM CST (2/8) 2:21 AM CST (2/8)
Length of Visible Light 11h 33m
Length of Day
10h 39m
Waxing Gibbous, 69% of the Moon is Illuminated
Feb 8
Waxing Gibbous
Feb 14
Full
Feb 22
Last Quarter
Mar 1
New
Mar 8
First Quarter

Hourly Weather History & Observations

Time (CST) Temp. Windchill Dew Point Humidity Pressure Visibility Wind Dir Wind Speed Gust Speed Precip Events Conditions
12:53 AM 24.1 °F 14.4 °F 19.0 °F 81% 30.23 in 10.0 mi South 9.2 mph - N/A   Overcast
1:50 AM 24.8 °F 16.1 °F 19.4 °F 80% 30.18 in 10.0 mi SSW 8.1 mph - N/A   Overcast
1:53 AM 24.1 °F 16.0 °F 19.0 °F 81% 30.22 in 10.0 mi SSW 6.9 mph - N/A   Overcast
2:01 AM 24.8 °F 16.9 °F 19.4 °F 80% 30.18 in 10.0 mi SSW 6.9 mph - N/A   Overcast
2:53 AM 23.0 °F 15.8 °F 19.9 °F 88% 30.22 in 10.0 mi SSW 5.8 mph - N/A   Overcast
3:26 AM 24.8 °F 17.9 °F 19.4 °F 80% 30.18 in 10.0 mi SSW 5.8 mph - N/A   Overcast
3:53 AM 24.1 °F 19.7 °F 19.9 °F 84% 30.22 in 10.0 mi SSW 3.5 mph - N/A   Overcast
4:53 AM 24.1 °F 17.0 °F 21.0 °F 88% 30.21 in 10.0 mi SSW 5.8 mph - N/A   Overcast
5:27 AM 24.8 °F 20.5 °F 21.2 °F 86% 30.16 in 10.0 mi South 3.5 mph - N/A   Overcast
5:53 AM 24.1 °F - 21.0 °F 88% 30.20 in 9.0 mi Calm Calm - N/A   Overcast
6:53 AM 24.1 °F 18.2 °F 21.9 °F 91% 30.20 in 5.0 mi South 4.6 mph - N/A   Overcast
7:53 AM 24.1 °F - 21.9 °F 91% 30.21 in 2.5 mi Calm Calm - 0.00 in Snow Light Snow
8:28 AM 24.8 °F - 23.0 °F 93% 30.17 in 5.0 mi Calm Calm - 0.00 in   Overcast
8:53 AM 26.1 °F - 23.0 °F 88% 30.20 in 7.0 mi Calm Calm - 0.00 in   Overcast
9:53 AM 28.0 °F 21.7 °F 24.1 °F 85% 30.21 in 10.0 mi SSW 5.8 mph - N/A   Overcast
10:53 AM 28.9 °F 22.8 °F 25.0 °F 85% 30.21 in 10.0 mi South 5.8 mph - N/A   Overcast
11:53 AM 30.0 °F 22.4 °F 26.1 °F 85% 30.18 in 10.0 mi SSE 8.1 mph - N/A   Overcast
12:53 PM 30.9 °F 25.2 °F 26.1 °F 82% 30.14 in 10.0 mi SSW 5.8 mph - N/A   Overcast
1:53 PM 32.0 °F 25.6 °F 26.1 °F 79% 30.15 in 10.0 mi SSW 6.9 mph - N/A   Overcast
2:53 PM 33.1 °F 28.7 °F 27.0 °F 78% 30.12 in 10.0 mi SSW 4.6 mph - N/A   Overcast
3:53 PM 33.1 °F 27.7 °F 28.0 °F 82% 30.09 in 10.0 mi South 5.8 mph - N/A   Mostly Cloudy
4:53 PM 33.1 °F 26.1 °F 27.0 °F 78% 30.07 in 10.0 mi SSW 8.1 mph - N/A   Partly Cloudy
5:33 PM 32.0 °F 24.8 °F 26.6 °F 80% 30.05 in 10.0 mi SW 8.1 mph - N/A   Mostly Cloudy
5:53 PM 32.0 °F 24.2 °F 27.0 °F 82% 30.08 in 10.0 mi South 9.2 mph - N/A   Overcast
6:53 PM 30.9 °F 27.5 °F 28.0 °F 89% 30.09 in 10.0 mi SSW 3.5 mph - N/A   Overcast
7:53 PM 30.9 °F 27.5 °F 28.9 °F 92% 30.11 in 7.0 mi WSW 3.5 mph - N/A   Overcast
8:22 PM 30.2 °F 25.4 °F 30.2 °F 100% 30.09 in 2.5 mi West 4.6 mph - N/A   Overcast
8:53 PM 30.0 °F 25.2 °F 30.0 °F 100% 30.13 in 2.0 mi WSW 4.6 mph - N/A   Overcast
9:53 PM 30.9 °F - 30.0 °F 96% 30.17 in 2.5 mi Calm Calm - N/A   Overcast
10:11 PM 30.2 °F 26.7 °F 30.2 °F 100% 30.14 in 3.0 mi West 3.5 mph - N/A   Overcast
10:41 PM 30.2 °F - 30.2 °F 100% 30.12 in 3.0 mi Calm Calm - N/A   Overcast
10:53 PM 30.0 °F - 30.0 °F 100% 30.15 in 3.0 mi Calm Calm - N/A   Overcast
11:05 PM 30.2 °F - 28.4 °F 93% 30.11 in 4.0 mi Calm Calm - N/A   Overcast
11:32 PM 30.2 °F - 30.2 °F 100% 30.10 in 3.0 mi Calm Calm - N/A   Overcast
11:41 PM 30.2 °F - 30.2 °F 100% 30.10 in 3.0 mi Calm Calm - N/A   Overcast
11:53 PM 30.0 °F - 30.0 °F 100% 30.14 in 4.0 mi Calm Calm - N/A   Overcast